STARLINK-32616, 61920

Orbit data source: Space-Track

STARLINK-32616, 61920 is a payload satellite owned by SpaceX/Seattle (US) in LEO that was launched on Mon, 11 Nov 2024 UTC via an FALCON 9 launch vehicle from the Air Force Eastern Test Range (AFETR). Payload-class satellites include a variety of spacecraft equipped with specific instruments for various scientific and technological missions. These include communications satellites like Starlink; space stations such as the ISS; scientific satellites like the Hubble; Earth observation satellites from companies like Planet Labs, Umbra, and HawkEye 360; GPS; miniature CubeSats for education and research; and military/defense satellites.

Loading next visibility...
Identifier
61920, 2024-207J
Orbit
LEO
Country
Flag of USUS
Related business
Manufacturer
SpaceX/Seattle
Mission
Operational Commercial Communications
Bus & Motor
STARLINK V2M, Unknown motor
Mass
730 kg wet, ~700 kg dry
Launch date (UTC)
2024-11-11 (1 year ago)
Launch vehicle
FALCON 9
Launch site
Air Force Eastern Test Range (AFETR)
Object type
Payload
Rocket body
Debris
Shape & HBR
Box + 2 Pan, 17.7 m
Radar Cross Section
33.884 m², Large (>1 m²)

Expand to show TLE details & history
Last TLE update: 10 hours ago

TLE from 10 hours ago
0 STARLINK-32616
1 61920U 24207J   25312.86986986  .00044542  00000-0  16178-2 0  9990
2 61920  43.0020 244.1256 0001397 263.3211  96.7482 15.27591144 56243
Epoch: 2025-11-08T20:52Z
TLE epoch observation values (Epoch: 2025-11-08T20:52:36.755Z)
Latitude
-0.00002°
Longitude
-117.32085°
Altitude
482.904 km
Speed
7.626 km/s
True Right ascension
16h 16m 30s
True Declination
0° 00' 00"
Sunlit
Object was in daylight at epoch
Visualization orbit readout
Latitude
Unknown
Longitude
Unknown
Altitude
Unknown
Speed
Unknown
Apparent Right ascension
Unknown
Apparent Declination
Unknown
Sunlit
N/A
Visualization observer readout
Local Sidereal Time
03:00:58
Azimuth
Unknown
Elevation
Unknown
Doppler factor
Unknown
Orbital elements
Apogee altitude
485.919 km
Perigee altitude
484.002 km
Semi-major axis
6,863.098 km
Eccentricity
0.00014
Inclination
43.002°
RAAN
244.1256°
Arg. of periapsis
263.3211°
True anomaly
96.7641°
Mean anomaly
96.7482°
Eccentric anomaly
96.75615°
Mean motion
3.81736 °/min
Orbital period
94.31 mins
BSTAR
0.0016178
Loading maneuver chart data...
Computing Atmospheric mass density...
Loading historical data...
Loading historical data...
Loading historical data...
Loading historical data...
Loading historical data...
Loading historical data...
Loading historical data...

Documentation

Showing up to 5 results
|